sat.trackr.live / text

‹ back to catalog

KUIPER-00304

NORAD 68599 · 2026-072AC

PAYLOAD ACTIVE UNKNOWN

§ Identity

Operator
Country
US
Launch date
2026-04-04
Launch site
AFETR
Launch vehicle
Mass (kg)
RCS (m²)

External: N2YO · Heavens-Above · Gunter

§ Orbital elements

Epoch: 2026-09-19T22:15:48.655008Z

Period
97.52 min
Inclination
51.9006°
Eccentricity
0.0000664
Mean motion
14.76617257 rev/d
Perigee alt
639.6 km
Apogee alt
640.5 km
Semi-major
7,018.2 km
B*
2.3365e-4
RAAN
98.1982°
Arg perigee
34.0017°
Mean anomaly
326.0986°
Rev number
2,568

§ Raw data

KUIPER-003041 68599U 26072AC  26262.92764647  .00001432  00000+0  23365-3 0  99982 68599  51.9006  98.1982 0000664  34.0017 326.0986 14.76617257 25689

JSON: /api/v1/satellites/68599 · /tle

For live sub-satellite position, see the globe view (requires WebGL).

§ Visibility from observer

Set your observer location to see the next 7 days of passes ≥ 10°. The values pass through the URL so the page stays shareable.

No JS? Fill the form by hand. The geolocation button needs JavaScript.